Flag for U.S.A. Weather past 2 weeks in New City, New York, U.S.A.

Now
76 °F

Passing clouds.


Feels Like: 78 °F
Forecast: 57 / 79 °F
Wind: 3 mph from Southwest

Location: Westchester County Airport

Current Time: Jul 30, 2014 at 4:26:48 PM

Latest Report: Jul 30, 2014 at 3:56 PM


Visibility: 10 mi

Pressure: 29.99 "Hg

Humidity: 37%

Dew point: 48 °F

Location of New CityLocation

Historic Weather in New City — Graph

°F

New City temperature yesterday

Maximum temperature yesterday: 73 °F (at 12:56 PM)
Minimum temperature yesterday: 61 °F (at 5:56 AM)
Average temperature yesterday: 67 °F

Past Weeks' High & Low Weather Summary

 TemperatureHumidityPressure
High86 °F (Jul 23, 1:56 PM)100% (Jul 16, 1:58 AM)30.24 "Hg (Jul 16, 1:58 AM)
Low56 °F (Jul 30, 5:56 AM)36% (Jul 18, 3:56 PM)29.49 "Hg (Jul 28, 1:56 PM)
Average71 °F71%29.95 "Hg
* Reported Jul 15 2:56 PM — Jul 30 2:56 PM, New City, Weather by CustomWeather, © 2014

Note: Actual official high and low records may vary slightly from our data, if they occured in-between our weather recording intervals... More about our weather records

Advertising

New City weather history for previous 24 hours

 ConditionsComfort  
Time TempWeatherWind HumidityBarometerVisibility
2:56 PM
Jul 30
75 °FScattered clouds.5 mph36%29.99 "Hg10 mi
1:56 PM76 °FScattered clouds.5 mph37%30.00 "Hg10 mi
12:56 PM75 °FScattered clouds.5 mph37%30.01 "Hg10 mi
11:56 AM74 °FScattered clouds.7 mph43%30.01 "Hg10 mi
10:56 AM71 °FPassing clouds.5 mph53%30.02 "Hg10 mi
9:56 AM70 °FSunny.5 mph55%30.02 "Hg10 mi
8:56 AM67 °FSunny.6 mph71%30.02 "Hg10 mi
7:56 AM64 °FSunny.6 mph75%30.02 "Hg10 mi
6:56 AM60 °FSunny.6 mph83%30.00 "Hg10 mi
5:56 AM56 °FClear.5 mph90%29.98 "Hg10 mi
4:56 AM57 °FClear.3 mph87%29.97 "Hg10 mi
3:56 AM58 °FPassing clouds.7 mph87%29.95 "Hg10 mi
2:56 AM58 °FClear.5 mph90%29.96 "Hg10 mi
1:56 AM59 °FClear.3 mph84%29.96 "Hg10 mi
12:56 AM62 °FClear.3 mph75%29.96 "Hg10 mi
11:56 PM
Jul 29
63 °FClear.5 mph70%29.96 "Hg10 mi
10:56 PM63 °FClear.3 mph73%29.96 "Hg10 mi
9:56 PM64 °FPassing clouds.5 mph68%29.95 "Hg10 mi
8:56 PM66 °FScattered clouds.5 mph63%29.93 "Hg10 mi
7:56 PM68 °FPartly sunny.3 mph57%29.93 "Hg10 mi
6:56 PM70 °FPartly sunny.6 mph51%29.92 "Hg10 mi
5:56 PM71 °FScattered clouds.7 mph47%29.90 "Hg10 mi
4:56 PM73 °FScattered clouds.10 mph43%29.89 "Hg10 mi
Weather by CustomWeather, © 2014

See weather overviewHow to use our weather pages